CW3065 Weather Reports


Display with metric or nautical units.
time (UTC)temp
F
wind
direction
speed
MPH
gust
MPH
rain 1hr
in
rain 24hr
in
rain mn
in
humidity
%
barometer
mb
20260507070504 35 276 7.0 15.0 0.00 0.67 0.00 50 1016.9
20260507070009 35 266 5.0 12.0 0.00 0.67 0.00 50 1017.0
20260507065504 35 263 5.0 14.0 0.00 0.67 0.00 51 1016.7
20260507065004 35 252 12.0 20.0 0.00 0.67 0.00 50 1016.6
20260507064504 35 256 10.0 23.0 0.00 0.67 0.00 51 1016.6
20260507064004 35 254 9.0 16.0 0.00 0.67 0.00 51 1016.7
20260507063504 35 265 12.0 23.0 0.00 0.67 0.00 50 1016.9
20260507063004 35 265 7.0 15.0 0.00 0.67 0.00 50 1017.1
20260507062504 35 253 10.0 14.0 0.00 0.67 0.00 50 1017.2
20260507062004 35 254 9.0 15.0 0.00 0.67 0.00 49 1017.2
20260507061504 35 250 13.0 21.0 0.00 0.67 0.00 49 1017.2
20260507060504 35 269 13.0 20.0 0.00 0.67 0.00 49 1017.2
20260507060004 35 260 10.0 24.0 0.00 0.67 0.00 49 1017.3
20260507054504 35 247 9.0 16.0 0.00 0.67 0.67 48 1017.7
20260507054004 35 256 13.0 21.0 0.00 0.67 0.67 48 1017.7
20260507053504 35 251 14.0 20.0 0.00 0.67 0.67 48 1017.7
20260507052504 35 257 9.0 20.0 0.00 0.67 0.67 48 1017.6
20260507052004 34 251 12.0 20.0 0.00 0.67 0.67 49 1017.4
20260507051504 34 266 10.0 20.0 0.00 0.67 0.67 50 1017.4
20260507050504 34 260 6.0 14.0 0.00 0.67 0.67 50 1017.4
20260507045004 34 278 9.0 18.0 0.00 0.67 0.67 51 1017.7
20260507044504 34 266 7.0 18.0 0.00 0.67 0.67 50 1017.6
20260507044004 35 273 10.0 20.0 0.00 0.67 0.67 50 1017.6
20260507043504 35 263 12.0 21.0 0.00 0.67 0.67 50 1017.4
20260507043004 34 258 9.0 16.0 0.00 0.67 0.67 50 1017.5
20260507042504 35 262 10.0 17.0 0.00 0.67 0.67 50 1017.3
20260507042004 35 275 13.0 21.0 0.00 0.67 0.67 50 1017.3
20260507041504 34 275 12.0 25.0 0.00 0.67 0.67 51 1017.3
20260507041004 35 265 20.0 25.0 0.00 0.67 0.67 51 1017.2
20260507040504 35 263 12.0 22.0 0.00 0.67 0.67 50 1017.1
20260507040004 35 261 13.0 23.0 0.00 0.67 0.67 50 1017.2
20260507035504 35 257 12.0 23.0 0.00 0.67 0.67 50 1017.2
20260507035003 35 269 13.0 24.0 0.00 0.67 0.67 50 1017.6
20260507034503 35 265 12.0 26.0 0.00 0.67 0.67 49 1017.6
20260507034004 35 268 12.0 28.0 0.00 0.67 0.67 50 1017.6
20260507033504 35 265 14.0 23.0 0.00 0.67 0.67 49 1017.6
20260507033004 35 255 17.0 26.0 0.00 0.67 0.67 50 1017.5
20260507032504 35 257 13.0 22.0 0.00 0.67 0.67 51 1017.1
20260507032004 35 254 15.0 24.0 0.00 0.67 0.67 50 1017.1
20260507031504 35 255 16.0 23.0 0.00 0.67 0.67 50 1016.9
20260507031004 35 255 16.0 23.0 0.00 0.67 0.67 51 1016.9
20260507030504 35 256 15.0 25.0 0.00 0.67 0.67 51 1016.9
20260507030004 35 246 12.0 20.0 0.00 0.67 0.67 51 1016.9
20260507025004 35 261 10.0 24.0 0.00 0.67 0.67 52 1016.7
20260507024504 35 259 9.0 18.0 0.00 0.67 0.67 53 1016.8
20260507023004 35 262 8.0 18.0 0.00 0.67 0.67 53 1016.5
20260507022504 35 260 7.0 22.0 0.00 0.67 0.67 53 1016.7
20260507022004 35 262 10.0 22.0 0.00 0.67 0.67 53 1016.5
20260507021503 35 248 9.0 17.0 0.00 0.67 0.67 53 1016.5
20260507020004 35 243 9.0 17.0 0.00 0.67 0.67 52 1016.3
20260507015504 35 248 10.0 17.0 0.00 0.67 0.67 52 1016.2
20260507015004 36 244 10.0 17.0 0.00 0.67 0.67 52 1016.2
20260507014504 36 234 7.0 13.0 0.00 0.67 0.67 52 1016.3
20260507014004 36 245 7.0 16.0 0.00 0.67 0.67 53 1016.2
20260507013504 36 242 6.0 13.0 0.01 0.67 0.67 52 1016.2
20260507013005 37 242 6.0 10.0 0.01 0.67 0.67 51 1016.2
20260507012503 37 246 5.0 12.0 0.01 0.67 0.67 50 1016.2
20260507011504 38 254 7.0 13.0 0.01 0.67 0.67 48 1016.1
20260507010504 38 254 7.0 18.0 0.01 0.67 0.67 49 1016.1
20260507005504 39 239 4.0 14.0 0.01 0.67 0.67 48 1016.4
20260507005004 39 241 6.0 13.0 0.01 0.67 0.67 48 1016.7
20260507004504 39 264 5.0 18.0 0.02 0.67 0.67 48 1016.7
20260507003504 40 247 5.0 10.0 0.01 0.66 0.66 45 1016.7
20260507003005 41 251 6.0 12.0 0.01 0.66 0.66 45 1016.7
20260507002504 41 307 3.0 9.0 0.01 0.66 0.66 46 1016.7
20260507002004 41 323 3.0 6.0 0.02 0.66 0.66 44 1016.7
20260507001503 41 226 1.0 3.0 0.02 0.66 0.66 45 1016.7
20260507000504 40 226 2.0 5.0 0.02 0.66 0.66 43 1016.8
20260507000004 41 226 5.0 9.0 0.03 0.66 0.66 44 1016.8
20260506235504 41 205 4.0 7.0 0.03 0.66 0.66 43 1016.8
20260506235004 40 292 2.0 3.0 0.03 0.66 0.66 45 1016.8
20260506234504 40 223 5.0 9.0 0.03 0.65 0.65 46 1016.9
20260506234004 39 250 10.0 14.0 0.04 0.65 0.65 45 1016.9
20260506233504 39 234 4.0 13.0 0.04 0.65 0.65 48 1016.7
20260506233004 39 226 7.0 20.0 0.05 0.66 0.65 47 1016.7
20260506232504 40 245 6.0 12.0 0.06 0.66 0.65 50 1016.7
20260506232003 39 251 9.0 15.0 0.06 0.65 0.64 49 1016.8
20260506231504 39 251 10.0 17.0 0.07 0.65 0.64 48 1016.7
20260506231004 39 268 6.0 14.0 0.08 0.65 0.64 51 1016.7
20260506230504 39 259 10.0 18.0 0.09 0.65 0.64 49 1016.7
20260506230004 39 268 8.0 13.0 0.10 0.64 0.63 49 1016.6
20260506225504 39 245 7.0 20.0 0.11 0.64 0.63 49 1016.8
20260506224504 38 291 2.0 6.0 0.13 0.63 0.62 69 1016.9
20260506224004 37 115 2.0 5.0 0.14 0.62 0.61 71 1016.9
20260506223504 37 78 2.0 3.0 0.16 0.62 0.61 68 1016.9
20260506223004 37 65 1.0 3.0 0.17 0.61 0.60 70 1017.0
20260506222004 37 48 2.0 5.0 0.19 0.59 0.58 70 1016.9
20260506221004 37 75 2.0 3.0 0.20 0.57 0.56 69 1017.2
20260506220504 37 85 1.0 2.0 0.21 0.56 0.55 69 1017.1
20260506220005 37 85 0.0 2.0 0.21 0.54 0.53 69 1017.2
20260506215503 37 85 0.0 1.0 0.23 0.53 0.52 66 1017.2
20260506215005 38 51 1.0 3.0 0.23 0.51 0.50 70 1017.3
20260506214504 37 66 2.0 3.0 0.24 0.51 0.49 68 1017.5
20260506214004 37 57 1.0 3.0 0.25 0.49 0.47 69 1017.6
20260506213504 37 58 3.0 5.0 0.24 0.47 0.45 71 1017.7
20260506211504 35 115 0.0 2.0 0.22 0.40 0.38 70 1017.8
20260506211004 35 111 1.0 2.0 0.21 0.38 0.36 72 1017.8
20260506210504 35 121 0.0 1.0 0.20 0.36 0.34 72 1017.8
20260506205504 35 85 2.0 3.0 0.16 0.32 0.29 71 1018.1
20260506205004 35 88 1.0 3.0 0.15 0.30 0.27 71 1018.4
20260506204504 35 88 2.0 5.0 0.13 0.28 0.25 70 1018.2
20260506204003 35 57 2.0 3.0 0.10 0.25 0.22 72 1018.6
20260506203004 33 77 2.0 3.0 0.08 0.22 0.19 78 1018.9
20260506202004 32 120 3.0 5.0 0.07 0.20 0.17 79 1018.8
20260506201004 32 62 3.0 6.0 0.05 0.19 0.15 80 1018.9
20260506200504 32 86 2.0 3.0 0.05 0.18 0.14 77 1019.0
20260506200004 32 66 3.0 6.0 0.05 0.18 0.14 78 1019.0
20260506195504 32 117 3.0 3.0 0.05 0.17 0.13 77 1019.0
20260506195004 32 114 5.0 6.0 0.04 0.16 0.12 77 1019.0
20260506194504 33 121 2.0 7.0 0.05 0.16 0.12 78 1018.9
20260506194004 32 81 3.0 8.0 0.05 0.16 0.12 79 1019.0
20260506193504 32 109 5.0 9.0 0.04 0.15 0.11 79 1019.0
20260506193004 31 107 5.0 7.0 0.05 0.16 0.11 79 1019.0
20260506192504 31 76 5.0 9.0 0.05 0.16 0.11 80 1019.0
20260506192003 31 84 5.0 12.0 0.05 0.15 0.10 79 1019.0
20260506191504 31 91 5.0 12.0 0.05 0.15 0.10 80 1019.0
20260506191004 32 117 6.0 10.0 0.05 0.15 0.10 77 1019.0
20260506190505 33 127 5.0 7.0 0.05 0.14 0.09 77 1019.0
20260506190004 32 52 6.0 10.0 0.05 0.14 0.09 79 1019.0
20260506185504 32 105 5.0 10.0 0.05 0.14 0.08 78 1019.0
20260506185003 31 101 6.0 12.0 0.06 0.14 0.08 78 1019.0
20260506184504 31 104 7.0 12.0 0.05 0.13 0.07 78 1019.0
20260506184004 31 108 5.0 8.0 0.06 0.13 0.07 77 1019.0
20260506183504 32 106 5.0 9.0 0.06 0.13 0.07 76 1019.0
20260506182504 33 86 4.0 7.0 0.06 0.12 0.06 72 1019.1
20260506182005 34 143 0.0 5.0 0.05 0.12 0.05 72 1019.1
20260506181003 35 151 0.0 0.0 0.05 0.12 0.05 66 1019.2
20260506180503 35 151 0.0 0.0 0.04 0.11 0.04 70 1019.3
20260506180005 35 151 0.0 0.0 0.04 0.11 0.04 67 1019.2
20260506175504 34 151 0.0 2.0 0.03 0.11 0.03 67 1019.3
20260506174504 34 62 0.0 2.0 0.02 0.10 0.02 71 1019.4
20260506174004 32 62 0.0 0.0 0.01 0.09 0.01 71 1019.5
20260506173504 32 76 0.0 0.0 0.01 0.09 0.01 66 1019.5
20260506173004 32 67 0.0 2.0 0.00 0.08 0.00 72 1019.5
20260506172504 31 94 0.0 2.0 0.00 0.08 0.00 76 1019.5
20260506172004 30 70 0.0 1.0 0.00 0.08 0.00 78 1019.5
20260506171504 29 106 0.0 0.0 0.00 0.09 0.00 78 1019.5
20260506171004 28 94 0.0 0.0 0.00 0.09 0.00 78 1019.4
20260506170503 28 107 0.0 0.0 0.00 0.09 0.00 78 1019.3
20260506170004 28 103 0.0 0.0 0.00 0.09 0.00 80 1019.4
20260506164504 28 106 0.0 0.0 0.00 0.09 0.00 81 1019.3
20260506164004 27 99 0.0 0.0 0.00 0.10 0.00 81 1019.3
20260506163503 27 107 0.0 0.0 0.00 0.10 0.00 82 1019.3
20260506163004 27 85 0.0 0.0 0.00 0.10 0.00 83 1019.3
20260506162504 27 80 0.0 0.0 0.00 0.10 0.00 81 1019.3
20260506162004 27 99 0.0 0.0 0.00 0.10 0.00 82 1019.3
20260506161004 26 91 0.0 0.0 0.00 0.10 0.00 84 1019.2
20260506160004 26 72 0.0 0.0 0.00 0.10 0.00 85 1019.0
20260506155504 26 84 0.0 0.0 0.00 0.10 0.00 86 1019.1
20260506154504 25 89 0.0 0.0 0.00 0.10 0.00 88 1018.8
20260506154004 25 105 0.0 0.0 0.00 0.10 0.00 87 1018.6
20260506153504 25 98 0.0 0.0 0.00 0.10 0.00 87 1018.6
20260506153003 25 94 0.0 0.0 0.00 0.10 0.00 88 1018.6
20260506151503 24 78 0.0 0.0 0.00 0.10 0.00 88 1018.6
20260506151004 24 91 0.0 0.0 0.00 0.10 0.00 89 1018.5
20260506150504 24 112 0.0 0.0 0.00 0.10 0.00 89 1018.4
20260506150004 24 107 0.0 0.0 0.00 0.10 0.00 89 1018.4
20260506145504 24 114 0.0 0.0 0.00 0.10 0.00 89 1018.3
20260506145004 24 99 0.0 0.0 0.00 0.10 0.00 90 1017.9
20260506144504 24 111 0.0 0.0 0.00 0.10 0.00 90 1017.9
20260506144004 24 91 0.0 0.0 0.00 0.10 0.00 91 1017.9
20260506143504 24 110 0.0 0.0 0.00 0.10 0.00 91 1017.9
20260506142504 23 107 0.0 0.0 0.00 0.10 0.00 92 1018.3
20260506142003 23 85 0.0 0.0 0.00 0.10 0.00 92 1018.4
20260506141504 23 113 0.0 0.0 0.00 0.10 0.00 91 1018.4
20260506140503 23 109 0.0 0.0 0.00 0.10 0.00 92 1018.2
20260506140004 23 97 0.0 0.0 0.00 0.10 0.00 92 1018.2
20260506135505 23 116 0.0 0.0 0.00 0.10 0.00 92 1017.9
20260506135004 23 86 0.0 0.0 0.00 0.10 0.00 92 1017.6
20260506134504 23 78 0.0 0.0 0.00 0.10 0.00 92 1017.5
20260506133004 23 75 0.0 0.0 0.00 0.10 0.00 93 1017.2
20260506132504 23 84 0.0 0.0 0.00 0.10 0.00 93 1017.2
20260506132005 23 71 0.0 0.0 0.00 0.10 0.00 92 1017.2
20260506131503 23 86 0.0 0.0 0.00 0.10 0.00 92 1017.2
20260506131004 22 121 0.0 0.0 0.00 0.10 0.00 93 1017.2
20260506130504 22 100 0.0 0.0 0.00 0.10 0.00 92 1017.1
20260506130005 22 89 0.0 0.0 0.00 0.10 0.00 93 1016.7
20260506125504 22 80 0.0 0.0 0.00 0.10 0.00 93 1016.6
20260506125004 22 85 0.0 0.0 0.00 0.10 0.00 93 1016.6
20260506124504 22 82 0.0 0.0 0.00 0.10 0.00 93 1016.5
20260506124004 22 80 0.0 0.0 0.00 0.10 0.00 93 1016.5
20260506123503 22 81 0.0 0.0 0.00 0.10 0.00 93 1016.5
20260506123004 22 72 0.0 0.0 0.00 0.10 0.00 93 1016.5
20260506122504 22 92 0.0 0.0 0.00 0.10 0.00 93 1016.2
20260506122004 22 89 0.0 0.0 0.00 0.10 0.00 93 1016.4
20260506121504 22 89 0.0 0.0 0.00 0.10 0.00 93 1016.3
20260506120504 23 99 0.0 0.0 0.00 0.10 0.00 93 1016.0
20260506120003 23 95 0.0 0.0 0.00 0.10 0.00 93 1015.9
20260506115504 23 98 0.0 0.0 0.00 0.10 0.00 93 1015.9
20260506115004 23 74 0.0 0.0 0.00 0.10 0.00 93 1015.9
20260506114504 23 79 0.0 0.0 0.00 0.10 0.00 93 1015.9
20260506114005 23 98 0.0 0.0 0.00 0.10 0.00 93 1015.9
20260506113504 23 98 0.0 0.0 0.00 0.10 0.00 92 1015.9
20260506112503 23 101 0.0 0.0 0.00 0.10 0.00 93 1015.9
20260506111503 23 84 0.0 0.0 0.00 0.10 0.00 93 1015.6
20260506111004 23 78 0.0 0.0 0.00 0.10 0.00 93 1015.6
20260506110504 23 46 0.0 0.0 0.00 0.10 0.00 93 1015.5
20260506110004 23 46 0.0 0.0 0.00 0.10 0.00 93 1015.3
20260506105504 23 46 0.0 0.0 0.00 0.10 0.00 93 1015.1
20260506105004 23 46 0.0 0.0 0.00 0.10 0.00 93 1014.9
20260506104004 24 46 0.0 0.0 0.00 0.10 0.00 93 1014.8
20260506103504 23 46 0.0 0.0 0.00 0.10 0.00 93 1014.8
20260506103004 24 46 0.0 0.0 0.00 0.10 0.00 93 1014.8
20260506102503 24 46 0.0 0.0 0.00 0.10 0.00 93 1014.6
20260506102004 24 46 0.0 0.0 0.00 0.10 0.00 93 1014.6
20260506101504 24 46 0.0 0.0 0.00 0.10 0.00 93 1014.7
20260506101004 24 46 0.0 0.0 0.00 0.10 0.00 93 1014.7
20260506100504 24 46 0.0 0.0 0.00 0.10 0.00 93 1014.9
20260506100004 23 46 0.0 0.0 0.00 0.10 0.00 93 1015.0
20260506095003 24 46 0.0 0.0 0.00 0.10 0.00 93 1014.7
20260506094503 24 46 0.0 0.0 0.00 0.10 0.00 93 1014.8
20260506094004 24 46 0.0 0.0 0.00 0.10 0.00 93 1014.9
20260506093504 24 46 0.0 0.0 0.00 0.10 0.00 93 1014.8
20260506093004 24 46 0.0 0.0 0.00 0.10 0.00 93 1014.9
20260506092503 24 46 0.0 0.0 0.00 0.10 0.00 93 1015.0
20260506092004 24 46 0.0 0.0 0.00 0.10 0.00 93 1014.9
20260506091504 24 46 0.0 0.0 0.00 0.10 0.00 93 1014.9
20260506091004 24 46 0.0 0.0 0.00 0.10 0.00 93 1014.8
20260506090503 24 46 0.0 0.0 0.00 0.11 0.00 93 1014.8
20260506090004 24 46 0.0 0.0 0.00 0.11 0.00 93 1014.9
20260506085504 24 46 0.0 0.0 0.00 0.11 0.00 93 1015.1
20260506085004 24 46 0.0 0.0 0.00 0.11 0.00 93 1015.1
20260506084504 24 46 0.0 0.0 0.00 0.11 0.00 93 1015.1
20260506083504 24 46 0.0 0.0 0.00 0.11 0.00 93 1015.0
20260506083004 24 46 0.0 0.0 0.00 0.11 0.00 93 1015.0
20260506082504 24 46 0.0 0.0 0.00 0.11 0.00 93 1015.1
20260506082003 24 46 0.0 0.0 0.00 0.11 0.00 93 1015.2
20260506081503 24 46 0.0 0.0 0.00 0.11 0.00 93 1015.2
20260506080504 24 86 0.0 0.0 0.00 0.12 0.00 93 1015.3
20260506073504 24 78 0.0 0.0 0.00 0.12 0.00 93 1014.7
20260506073004 24 100 0.0 0.0 0.00 0.13 0.00 93 1014.7
20260506072504 25 107 0.0 0.0 0.00 0.14 0.00 93 1014.8
20260506072004 25 80 0.0 0.0 0.00 0.15 0.00 93 1014.8
20260506071504 25 86 0.0 0.0 0.00 0.16 0.00 93 1015.1
20260506071004 25 91 0.0 0.0 0.00 0.16 0.00 93 1015.1